Location: Zagreb
(45.8000°N, 16.0000°E)
Time: 13:31:26
(UTC+01:00)

ISS - Visible Passes

Search period start: 25 January 2026 00:00
Search period end: 04 February 2026 00:00
Orbit: 415 x 430 km, 51.6° (Epoch: 25 January)

Date Brightness Start Highest point End Pass type
(mag) Time Alt. Az. Time Alt. Az. Time Alt. Az.
25 Jan -3.7 18:47:08 10° WNW 18:50:17 73° NNW 18:50:17 73° NNW visible
26 Jan -3.6 18:00:28 10° WNW 18:03:48 57° NNE 18:05:51 21° E visible
26 Jan -0.9 19:37:35 10° W 19:38:54 19° W 19:38:54 19° W visible
27 Jan -2.7 18:50:40 10° WNW 18:53:53 41° SW 18:54:35 36° S visible
28 Jan -3.4 18:03:51 10° WNW 18:07:12 65° SSW 18:10:27 11° SE visible
28 Jan -0.5 19:42:54 10° WSW 19:43:29 10° SW 19:43:31 10° SW visible
29 Jan -0.9 18:54:42 10° W 18:56:55 16° SW 18:59:08 10° S visible
30 Jan -1.5 18:07:26 10° W 18:10:16 25° SW 18:13:07 10° SSE visible
